Location: Trebic
(49.2170°N, 15.8830°E)
Time: 08:14:14
(UTC+02:00)

Courier 1B Rocket - Pass Details

Date: 30 August 2019
Orbit: 920 x 1202 km, 28.2° (Epoch: 20 September)

Event Time Altitude Azimuth Distance (km) Brightness Sun altitude
Rises 02:01:12 0° 219° (SW) 3,704 - -29.9°
Reaches altitude 10° 02:06:12 10° 187° (S) 2,831 - -29.7°
Maximum altitude 02:08:07 11° 170° (S) 2,768 - -29.6°
Drops below altitude 10° 02:10:05 10° 154° (SSE) 2,892 - -29.5°
Exits shadow 02:14:48 - 125° (SE) 3,783 8.0 -29.2°
Sets 02:15:23 0° 123° (ESE) 3,930 8.1 -29.2°
